Miscellaneous Local Product
Issued by NWS North Platte, NE

Home | Current Version | Previous Version | Text Only | Print | Product List | Glossary On
Versions: 1 2 3 4 5 6 7 8 9 10 11 12 13 14 15 16 17 18 19 20 21 22 23 24 25 26 27 28 29 30 31 32 33 34 35 36 37 38 39 40 41 42 43 44 45 46 47 48 49 50
625
AXUS43 KLBF 070510
MISLBF


WESTERN AND NORTH CENTRAL NEBRASKA HOURLY WEATHER ROUNDUP
NATIONAL WEATHER SERVICE NORTH PLATTE NE
1100 PM CST SAT FEB 06 2016

NOTE: "FAIR" INDICATES FEW OR NO CLOUDS BELOW 12,000 FEET WITH NO
SIGNIFICANT WEATHER AND/OR OBSTRUCTIONS TO VISIBILITY.

NOTE: STATIONS NOT REPORTING VARIABLES SUCH AS SKY/WEATHER OR
PRESSURE ARE PROVIDED BY THE NEBRASKA DEPARTMENT OF
ROADS...RAWS...AND APRS NETWORKS...AND ARE NOT UNDER
NATIONAL WEATHER SERVICE QUALITY CONTROL.

...OBSERVATIONS IN AND NEAR THE EASTERN PANHANDLE OF NEBRASKA...

CITY           SKY/WX    TMP DP  RH WIND       PRES   REMARKS
PINE RIDGE     MOCLDY    30  25  81 SW5       30.05S WCI  25
CHADRON        CLEAR     33  26  75 W12       30.09R WCI  24
SIDNEY         CLOUDY    36  26  67 NW13      30.11R WCI  27
BIG SPRINGS      N/A     35  28  75 NW6         N/A  WCI  30
$$

...OBSERVATIONS IN NORTH CENTRAL NEBRASKA...

CITY           SKY/WX    TMP DP  RH WIND       PRES   REMARKS
VALENTINE      MOCLDY    39  27  62 W10       29.98R WCI  32
THEDFORD       CLEAR     37  29  74 NW8       30.01S WCI  30
AINSWORTH      PTCLDY    38  28  69 NW9       29.97S WCI  31
O`NEILL        CLOUDY    39  29  67 NW10      29.93R WCI  32
ORD            CLOUDY    38  29  70 NW13      29.95R WCI  30
BROKEN BOW     CLOUDY    39  28  64 NW15      29.98R WCI  31
BUTTE            N/A     42  30  62 W20G28      N/A
CHAMBERS         N/A     37  28  69 W6          N/A  WCI  32
EWING            N/A     37  30  77 W10         N/A  WCI  30
$$

...OBSERVATIONS IN SOUTHWEST NEBRASKA AND FAR NORTHEAST COLORADO...

CITY           SKY/WX    TMP DP  RH WIND       PRES   REMARKS
WRAY           FAIR      35  26  70 NW9       30.09R WCI  28
HOLYOKE        FAIR      34  27  75 NW9       30.09R WCI  26
IMPERIAL       CLOUDY    34  24  67 NW10      30.07R WCI  26
OGALLALA       CLOUDY    38  26  60 NW17G30   30.07R WCI  29
NORTH PLATTE   CLOUDY    36  26  67 NW12      30.05R WCI  28
MCCOOK         CLOUDY    37  26  64 W14       30.04R WCI  28
LEXINGTON      CLOUDY    35  27  73 NW16      30.00R WCI  24
PAXTON           N/A     39  32  76 W5          N/A
STAPLETON        N/A     36  29  75 CALM        N/A
GOTHENBURG       N/A     37  26  66 NW10        N/A  WCI  30
CALLAWAY         N/A     36  29  74 NW12        N/A  WCI  28
$$

...OBSERVATIONS IN CENTRAL LINCOLN COUNTY AREA...

CITY           SKY/WX    TMP DP  RH WIND       PRES   REMARKS
N.P. AIRPORT   CLOUDY    36  26  67 NW12      30.05R WCI  28
N.P. DOWNTOWN    N/A     38  29  71 W3          N/A
N.P. SOUTHEAST   N/A     38  28  67 CALM        N/A
N.P. HILLCREST   N/A     39  30  71 NW12        N/A  WCI  32
$$

...SOME OBSERVATIONS FROM AROUND THE REGION...

CITY           SKY/WX    TMP DP  RH WIND       PRES   REMARKS
DENVER         CLOUDY    43  16  33 SW13      30.10S
LARAMIE        CLOUDY    30  16  56 W23       30.15F WCI  17
CHEYENNE       CLOUDY    37  16  42 NW14      30.10R WCI  28
SCOTTSBLUFF    CLOUDY    35  24  64 NW13      30.12R WCI  26
RAPID CITY     CLEAR     38  19  46 NW25G36   30.01R WCI  27
BISMARCK       CLEAR     43  25  49 W22G35    29.76R
PIERRE         CLEAR     40  25  55 W21       29.88R WCI  30
WINNER         FAIR      40  26  57 W17G26    29.94R WCI  31
SIOUX FALLS    CLOUDY    37  29  72 W8        29.82F WCI  31
OMAHA          CLOUDY    39  27  62 S8G17     29.92F WCI  33
GRAND ISLAND   CLOUDY    33  26  75 W15       29.96R WCI  23
KANSAS CITY    PTCLDY    41  28  60 SW17      30.07F
WICHITA        PTCLDY    40  25  55 S12       30.13S WCI  33
OKLAHOMA CITY  CLEAR     33  26  75 S10       30.24F WCI  25
LIBERAL        CLEAR     36  14  41 SW13      30.11S WCI  27
HAYS           CLOUDY    36  19  51 SW5       30.06S WCI  32
GOODLAND       CLOUDY    35  23  61 W15       30.06R WCI  25
$$




USA.gov is the U.S. government's official web portal to all federal, state and local government web resources and services.